Weather History for DeKalb, IL

Change the Weather History Date:

Wednesday, March 12, 2014

  Actual Average (KARR) Record (KARR)
Temperature  
Mean Temperature 25 °F 35 °F  
Max Temperature 32 °F 45 °F 63 °F (2007)
Min Temperature 18 °F 26 °F 5 °F (1999)
Degree Days  
Heating Degree Days 40 30  
Month to date heating degree days 386  
Since 1 July heating degree days 5524  
Cooling Degree Days 0 0  
Month to date cooling degree days 0  
Year to date cooling degree days 0  
Moisture  
Dew Point 19 °F    
Average Humidity 75    
Maximum Humidity 97    
Minimum Humidity 62    
Precipitation  
Precipitation 0.02 in 0.07 in 0.36 in (2012)
Month to date precipitation 0.81  
Year to date precipitation 3.90  
Sea Level Pressure  
Sea Level Pressure 29.92 in    
Wind  
Wind Speed 15 mph (NNE)    
Max Wind Speed 23 mph    
Max Gust Speed 28 mph    
T = Trace of Precipitation, MM = Missing Value Source: NWS Daily Summary

Daily Weather History Graph

Daily Weather History Graph

Search for Another Location

Airport:

Trip Planner

Search our weather history database for the weather conditions in past years. The results will help you decide how hot, cold, wet, or windy it might be!

Date:

Astronomy

Mar. 12, 2014 Rise Set
Actual Time 7:11 AM CDT 6:57 PM CDT
Civil Twilight 6:43 AM CDT 7:25 PM CDT
Nautical Twilight 6:11 AM CDT 7:58 PM CDT
Astronomical Twilight 5:38 AM CDT 8:30 PM CDT
Moon 3:25 PM CDT (3/12) 4:46 AM CDT (3/12)
Length of Visible Light 12h 41m
Length of Day
11h 46m
Waxing Gibbous, 85% of the Moon is Illuminated
Mar 12
Waxing Gibbous
Mar 16
Full
Mar 23
Last Quarter
Mar 30
New
Apr 7
First Quarter

Hourly Weather History & Observations

Time (CDT) Temp. Windchill Dew Point Humidity Pressure Visibility Wind Dir Wind Speed Gust Speed Precip Events Conditions
12:15 AM 32.9 °F 22.8 °F 31.6 °F 95% 29.72 in - NE 15.0 mph - N/A   Unknown
12:35 AM 32.5 °F 22.7 °F 31.6 °F 96% 29.72 in - NNE 13.8 mph - N/A   Overcast
12:55 AM 32.2 °F 22.7 °F 31.5 °F 97% 29.71 in - NNE 12.7 mph - N/A   Overcast
1:15 AM 32.0 °F 22.5 °F 31.1 °F 96% 29.71 in - NNE 12.7 mph - 0.01 in   Overcast
1:35 AM 32.0 °F 22.1 °F 31.1 °F 96% 29.72 in - North 13.8 mph 18.4 mph 0.01 in   Overcast
1:55 AM 32.0 °F 22.1 °F 30.9 °F 96% 29.74 in - North 13.8 mph - 0.01 in   Overcast
2:15 AM 31.8 °F 21.8 °F 30.6 °F 95% 29.74 in - NNE 13.8 mph 20.7 mph 0.01 in   Overcast
2:35 AM 31.1 °F 19.7 °F 29.8 °F 95% 29.73 in - NNE 17.3 mph 23.0 mph 0.01 in   Overcast
2:55 AM 31.1 °F 20.9 °F 29.3 °F 93% 29.72 in - NNE 13.8 mph 21.9 mph 0.01 in   Overcast
3:15 AM 30.2 °F 19.3 °F 28.4 °F 93% 29.73 in - NNE 15.0 mph 21.9 mph N/A   Overcast
3:35 AM 29.8 °F 17.3 °F 28.0 °F 93% 29.74 in - NNE 19.6 mph - N/A   Overcast
3:55 AM 29.3 °F 17.3 °F 27.7 °F 94% 29.74 in - NNE 17.3 mph 23.0 mph N/A   Overcast
4:15 AM 29.1 °F 18.4 °F 27.5 °F 94% 29.74 in - NNE 13.8 mph 24.2 mph N/A   Overcast
4:35 AM 28.9 °F 16.9 °F 27.0 °F 92% 29.76 in - North 17.3 mph 24.2 mph N/A   Overcast
4:55 AM 28.4 °F 15.1 °F 26.1 °F 91% 29.76 in - NNE 20.7 mph 26.5 mph N/A   Overcast
5:15 AM 28.2 °F 15.5 °F 25.7 °F 90% 29.77 in - North 18.4 mph 24.2 mph N/A   Overcast
5:35 AM 28.2 °F 14.5 °F 24.3 °F 85% 29.77 in - NNE 21.9 mph 26.5 mph N/A   Unknown
5:55 AM 28.2 °F 16.8 °F 23.5 °F 83% 29.78 in - North 15.0 mph 20.7 mph N/A   Overcast
6:15 AM 28.4 °F 17.0 °F 23.2 °F 81% 29.79 in - North 15.0 mph - N/A   Overcast
6:35 AM 28.8 °F 14.9 °F 20.3 °F 71% 29.79 in - North 23.0 mph 27.6 mph N/A   Overcast
6:55 AM 28.4 °F 14.7 °F 20.3 °F 72% 29.80 in - North 21.9 mph 26.5 mph N/A   Overcast
7:15 AM 28.2 °F 15.9 °F 20.3 °F 72% 29.81 in - North 17.3 mph - N/A   Mostly Cloudy
7:35 AM 27.5 °F 15.0 °F 20.5 °F 75% 29.83 in - North 17.3 mph 24.2 mph N/A   Mostly Cloudy
7:55 AM 27.9 °F 16.8 °F 21.2 °F 76% 29.83 in - North 13.8 mph - N/A   Overcast
8:15 AM 27.5 °F 13.9 °F 20.7 °F 75% 29.84 in - North 20.7 mph 26.5 mph N/A   Overcast
8:35 AM 27.5 °F 13.9 °F 20.3 °F 74% 29.85 in - North 20.7 mph 26.5 mph N/A   Overcast
8:55 AM 27.3 °F 16.1 °F 21.6 °F 79% 29.86 in - NNE 13.8 mph - N/A   Overcast
9:15 AM 27.3 °F 15.6 °F 20.8 °F 77% 29.86 in - NNE 15.0 mph - N/A   Overcast
9:35 AM 27.1 °F 13.8 °F 19.2 °F 72% 29.88 in - North 19.6 mph 25.3 mph N/A   Overcast
9:55 AM 27.5 °F 14.2 °F 20.8 °F 76% 29.88 in - North 19.6 mph - N/A   Overcast
10:15 AM 27.5 °F 15.9 °F 21.0 °F 77% 29.89 in - North 15.0 mph - N/A   Overcast
10:35 AM 27.5 °F 14.6 °F 20.5 °F 75% 29.90 in - North 18.4 mph - N/A   Overcast
10:55 AM 27.5 °F 15.4 °F 20.1 °F 74% 29.90 in - North 16.1 mph - N/A   Overcast
11:15 AM 27.3 °F 14.8 °F 19.6 °F 73% 29.91 in - NNW 17.3 mph 20.7 mph N/A   Overcast
11:35 AM 26.6 °F 13.4 °F 18.7 °F 72% 29.92 in - North 18.4 mph 24.2 mph N/A   Overcast
11:55 AM 26.6 °F 14.7 °F 18.3 °F 71% 29.93 in - NNW 15.0 mph - N/A   Overcast
12:15 PM 27.0 °F 15.2 °F 16.5 °F 65% 29.94 in - NNW 15.0 mph 20.7 mph N/A   Overcast
12:35 PM 26.2 °F 13.0 °F 17.6 °F 70% 29.95 in - NNW 18.4 mph 23.0 mph N/A   Overcast
1:15 PM 26.6 °F 14.7 °F 18.0 °F 70% 29.96 in - North 15.0 mph 18.4 mph N/A   Overcast
1:35 PM 27.0 °F 14.7 °F 17.1 °F 66% 29.96 in - North 16.1 mph 23.0 mph N/A   Overcast
1:55 PM 27.1 °F 14.1 °F 17.8 °F 68% 29.96 in - NNW 18.4 mph 23.0 mph N/A   Overcast
2:15 PM 27.1 °F 13.8 °F 17.2 °F 66% 29.96 in - North 19.6 mph 23.0 mph N/A   Mostly Cloudy
2:35 PM 26.6 °F 14.3 °F 18.0 °F 70% 29.96 in - NNW 16.1 mph 23.0 mph N/A   Clear
2:55 PM 26.4 °F 13.2 °F 16.9 °F 67% 29.98 in - North 18.4 mph 24.2 mph N/A   Scattered Clouds
3:15 PM 26.2 °F 13.0 °F 18.0 °F 71% 29.98 in - North 18.4 mph 21.9 mph N/A   Clear
3:35 PM 25.5 °F 12.4 °F 16.0 °F 67% 29.99 in - North 17.3 mph 21.9 mph N/A   Clear
3:55 PM 25.2 °F 11.6 °F 14.4 °F 64% 30.00 in - North 18.4 mph 21.9 mph N/A   Clear
4:15 PM 25.3 °F 13.1 °F 14.9 °F 65% 30.00 in - North 15.0 mph - N/A   Clear
4:35 PM 25.3 °F 12.6 °F 14.2 °F 63% 30.01 in - North 16.1 mph - N/A   Clear
4:55 PM 25.3 °F 13.1 °F 14.0 °F 62% 30.01 in - North 15.0 mph - N/A   Scattered Clouds
5:15 PM 25.2 °F 12.9 °F 14.5 °F 64% 30.02 in - North 15.0 mph - N/A   Mostly Cloudy
5:35 PM 24.8 °F 13.4 °F 14.0 °F 64% 30.02 in - North 12.7 mph 17.3 mph N/A   Scattered Clouds
5:55 PM 24.3 °F 13.3 °F 13.5 °F 63% 30.03 in - North 11.5 mph - N/A   Clear
6:15 PM 23.9 °F 12.9 °F 13.1 °F 63% 30.04 in - North 11.5 mph - N/A   Clear
6:35 PM 23.4 °F 12.8 °F 12.6 °F 63% 30.05 in - North 10.4 mph - N/A   Clear
6:55 PM 22.8 °F 13.6 °F 12.7 °F 65% 30.06 in - NNE 8.1 mph - N/A   Clear
7:15 PM 21.6 °F 12.1 °F 12.0 °F 67% 30.06 in - NNE 8.1 mph - N/A   Clear
7:35 PM 22.1 °F 12.8 °F 10.9 °F 62% 30.07 in - North 8.1 mph - N/A   Clear
7:55 PM 21.4 °F 15.1 °F 11.7 °F 66% 30.07 in - NNE 4.6 mph - N/A   Clear
8:15 PM 20.3 °F 12.5 °F 10.9 °F 67% 30.08 in - NNE 5.8 mph - N/A   Clear
8:35 PM 18.9 °F 10.8 °F 10.6 °F 70% 30.08 in - NE 5.8 mph - N/A   Clear
8:55 PM 18.5 °F 9.3 °F 10.2 °F 70% 30.08 in - NNE 6.9 mph - N/A   Clear
9:15 PM 19.0 °F 11.1 °F 10.0 °F 68% 30.09 in - NNE 5.8 mph - N/A   Scattered Clouds
9:35 PM 18.5 °F 13.3 °F 10.4 °F 71% 30.09 in - NE 3.5 mph - N/A   Mostly Cloudy
9:55 PM 19.4 °F 14.3 °F 10.6 °F 69% 30.09 in - NE 3.5 mph - N/A   Overcast
10:15 PM 18.7 °F 11.9 °F 10.9 °F 72% 30.10 in - ENE 4.6 mph - N/A   Overcast
10:35 PM 18.5 °F 13.3 °F 8.1 °F 64% 30.10 in - ENE 3.5 mph - N/A   Overcast
10:55 PM 18.1 °F 10.0 °F 7.2 °F 62% 30.11 in - ENE 5.8 mph - N/A   Overcast
11:15 PM 18.7 °F 11.9 °F 7.7 °F 62% 30.11 in - East 4.6 mph - N/A   Overcast
11:35 PM 18.3 °F 10.2 °F 8.2 °F 65% 30.11 in - East 5.8 mph - N/A   Overcast
11:55 PM 18.1 °F 8.9 °F 8.6 °F 66% 30.10 in - East 6.9 mph - N/A   Overcast